This demonstration page uses our WeatherBlox Daily Observations layout. Learn more.

Left ArrowRight Arrow

Hourly Observations for April 22, 2017

Temp ( °F °C ) Dew Point ( °F °C ) Humidity (%) Winds ( mph kmh ) Pressure ( in mb ) Visibility ( mi km ) Precip ( " mm )
12:53 am 00:53 Cloudy 43 6.1 38 3.3 82 82 N 6 9 30.33 1027 10 16 0.00 0.00
1:40 am 01:40 Cloudy 43 6 37 3 81 81 N 5 7 30.36 1028 10 16 0.00 0.00
1:51 am 01:51 Cloudy 43 6 37 3 81 81 N 5 7 30.36 1028 10 16 0.00 0.00
1:53 am 01:53 Cloudy 43 6.1 38 3.3 82 82 N 5 7 30.32 1027 10 16 0.00 0.00
2:53 am 02:53 Cloudy 43 6.1 38 3.3 82 82 N 5 7 30.31 1026 10 16 0.00 0.00
3:13 am 03:13 Cloudy 43 6.1 38 3.3 82 82 N 5 7 30.30 1026 10 16 0.00 0.00
3:53 am 03:53 Cloudy 43 6.1 38 3.3 82 82 W 5 7 30.30 1026 10 16 0.00 0.00
4:42 am 04:42 Cloudy 43 6 39 4 87 87 W 3 6 30.30 1026 10 16 0.00 0.00
4:53 am 04:53 Cloudy 42 5.6 39 3.9 89 89 Calm 30.30 1026 10 16 0.00 0.00
5:53 am 05:53 Cloudy 42 5.6 39 3.9 89 89 Calm 30.29 1026 10 16 0.00 0.00
6:53 am 06:53 Cloudy 42 5.6 39 3.9 89 89 WSW 3 6 30.31 1026 10 16 0.00 0.00
7:07 am 07:07 Cloudy 42 5.6 39 3.9 89 89 WSW 3 6 30.33 1027 10 16 0.00 0.00
7:53 am 07:53 Cloudy 43 6.1 39 3.9 86 86 E 3 6 30.28 1025 10 16 0.00 0.00
8:53 am 08:53 Cloudy 44 6.7 39 3.9 83 83 SSE 3 6 30.26 1025 10 16 0.00 0.00
9:53 am 09:53 Cloudy 46 7.8 39 3.9 77 77 WSW 3 6 30.24 1024 10 16 0.00 0.00
10:53 am 10:53 Cloudy 49 9.4 39 3.9 69 69 Calm 30.21 1023 10 16 0.00 0.00
11:53 am 11:53 Cloudy 50 10 39 3.9 66 66 Calm 30.19 1022 10 16 0.00 0.00
12:53 pm 12:53 Mostly Cloudy 53 11.7 41 5 64 64 Calm 30.16 1021 10 16 0.00 0.00
1:53 pm 13:53 Mostly Cloudy 55 12.8 41 5 59 59 E 9 15 30.11 1020 10 16 0.00 0.00
2:53 pm 14:53 Mostly Cloudy 56 13.3 41 5 57 57 E 13 20 30.08 1019 10 16 0.00 0.00
3:53 pm 15:53 Mostly Sunny 56 13.3 41 5 57 57 ENE 17 28 30.04 1017 10 16 0.00 0.00
4:53 pm 16:53 Mostly Sunny 56 13.3 41 5 57 57 E 21 33 30.01 1016 10 16 0.00 0.00
5:53 pm 17:53 Sunny 55 12.8 41 5 59 59 E 21 33 29.99 1016 10 16 0.00 0.00
6:53 pm 18:53 Partly Cloudy 54 12.2 41 5 62 62 E 21 33 29.98 1015 10 16 0.00 0.00
7:53 pm 19:53 Mostly Sunny 51 10.6 41 5 69 69 E 21 33 29.97 1015 10 16 0.00 0.00
8:53 pm 20:53 Mostly Clear 49 9.4 40 4.4 71 71 E 22 35 29.97 1015 10 16 0.00 0.00
9:53 pm 21:53 Mostly Cloudy 47 8.3 40 4.4 77 77 E 20 31 29.98 1015 10 16 0.00 0.00
10:53 pm 22:53 Mostly Clear 47 8.3 41 5 80 80 E 22 35 29.95 1014 10 16 0.00 0.00
11:53 pm 23:53 Clear 45 7.2 40 4.4 83 83 E 20 31 29.94 1014 10 16 0.00 0.00

Powered by AerisWeather